TimeEST,TemperatureF,Dew PointF,Humidity,Sea Level PressureIn,VisibilityMPH,Wind Direction,Wind SpeedMPH,Gust SpeedMPH,PrecipitationIn,Events,Conditions,WindDirDegrees,DateUTC
12:15 AM,32.4,32.4,100,30.36,7.0,Calm,Calm,-,N/A,,Clear,0,2012-12-01 05:15:00
12:35 AM,32.0,32.0,100,30.36,10.0,Calm,Calm,-,N/A,,Clear,0,2012-12-01 05:35:00
12:55 AM,32.0,32.0,100,30.36,7.0,Calm,Calm,-,N/A,,Clear,0,2012-12-01 05:55:00
1:15 AM,32.5,32.5,100,30.36,7.0,Calm,Calm,-,N/A,,Clear,0,2012-12-01 06:15:00
1:35 AM,32.0,32.0,100,30.36,10.0,Calm,Calm,-,N/A,,Clear,0,2012-12-01 06:35:00
1:55 AM,31.5,31.5,100,30.36,10.0,Calm,Calm,-,N/A,,Clear,0,2012-12-01 06:55:00
2:15 AM,30.0,30.0,100,30.36,7.0,Calm,Calm,-,N/A,,Clear,0,2012-12-01 07:15:00
2:35 AM,31.6,31.6,100,30.36,7.0,Calm,Calm,-,N/A,,Clear,0,2012-12-01 07:35:00
2:55 AM,30.7,30.7,100,30.36,7.0,Calm,Calm,-,N/A,,Clear,0,2012-12-01 07:55:00
3:15 AM,30.9,30.9,100,30.37,5.0,Calm,Calm,-,N/A,,Clear,0,2012-12-01 08:15:00
3:55 AM,30.2,30.2,100,30.36,5.0,East,3.5,-,N/A,,Clear,80,2012-12-01 08:55:00
4:15 AM,30.7,30.7,100,30.36,5.0,Calm,Calm,-,N/A,,Clear,0,2012-12-01 09:15:00
4:35 AM,30.0,30.0,100,30.36,5.0,Calm,Calm,-,N/A,,Clear,0,2012-12-01 09:35:00
5:15 AM,30.9,30.9,100,30.36,5.0,Calm,Calm,-,N/A,,Scattered Clouds,0,2012-12-01 10:15:00
5:35 AM,31.3,31.3,100,30.37,5.0,Calm,Calm,-,N/A,,Scattered Clouds,0,2012-12-01 10:35:00
5:55 AM,30.7,30.7,100,30.37,7.0,Calm,Calm,-,N/A,,Clear,0,2012-12-01 10:55:00
6:15 AM,31.1,31.1,100,30.38,7.0,Calm,Calm,-,N/A,,Clear,0,2012-12-01 11:15:00
6:35 AM,30.7,30.7,100,30.39,7.0,Calm,Calm,-,N/A,,Scattered Clouds,0,2012-12-01 11:35:00
6:55 AM,29.3,29.3,100,30.39,7.0,Calm,Calm,-,N/A,,Scattered Clouds,0,2012-12-01 11:55:00
7:15 AM,30.6,30.6,100,30.39,7.0,Calm,Calm,-,N/A,,Scattered Clouds,0,2012-12-01 12:15:00
7:35 AM,30.7,30.7,100,30.41,4.0,Calm,Calm,-,N/A,,Clear,0,2012-12-01 12:35:00
7:55 AM,32.2,32.2,100,30.42,1.0,Calm,Calm,-,N/A,,Mostly Cloudy,0,2012-12-01 12:55:00
8:15 AM,33.1,33.1,100,30.43,3.0,Calm,Calm,-,N/A,,Mostly Cloudy,0,2012-12-01 13:15:00
8:35 AM,37.0,37.0,100,30.44,4.0,Calm,Calm,-,N/A,,Clear,0,2012-12-01 13:35:00
8:55 AM,39.7,39.7,100,30.43,5.0,Calm,Calm,-,N/A,,Clear,0,2012-12-01 13:55:00
9:15 AM,43.0,42.8,99,30.43,7.0,Calm,Calm,-,N/A,,Clear,0,2012-12-01 14:15:00
9:35 AM,45.5,43.0,91,30.43,7.0,Calm,Calm,-,N/A,,Clear,0,2012-12-01 14:35:00
9:55 AM,46.4,43.7,90,30.44,10.0,Calm,Calm,-,N/A,,Clear,0,2012-12-01 14:55:00
10:15 AM,48.4,42.6,80,30.43,10.0,South,4.6,-,N/A,,Clear,180,2012-12-01 15:15:00
10:35 AM,50.0,42.6,76,30.43,10.0,Calm,Calm,-,N/A,,Clear,0,2012-12-01 15:35:00
10:55 AM,52.2,43.3,72,30.42,10.0,Calm,Calm,-,N/A,,Clear,0,2012-12-01 15:55:00
11:15 AM,53.8,44.2,70,30.41,10.0,SSW,4.6,-,N/A,,Clear,200,2012-12-01 16:15:00
11:35 AM,54.1,43.5,67,30.41,10.0,WSW,4.6,-,N/A,,Clear,240,2012-12-01 16:35:00
11:55 AM,55.4,44.2,66,30.41,10.0,Calm,Calm,-,N/A,,Clear,0,2012-12-01 16:55:00
12:15 PM,57.0,43.9,61,30.39,10.0,SW,3.5,-,N/A,,Clear,220,2012-12-01 17:15:00
12:35 PM,58.3,43.5,58,30.39,10.0,SSW,3.5,-,N/A,,Clear,210,2012-12-01 17:35:00
12:55 PM,58.6,43.5,57,30.38,10.0,SSW,4.6,-,N/A,,Clear,200,2012-12-01 17:55:00
1:15 PM,59.0,43.5,56,30.38,10.0,SW,3.5,-,N/A,,Clear,220,2012-12-01 18:15:00
1:35 PM,60.1,43.7,55,30.38,10.0,SSW,3.5,-,N/A,,Clear,210,2012-12-01 18:35:00
1:55 PM,60.6,43.3,53,30.37,10.0,Calm,Calm,-,N/A,,Clear,0,2012-12-01 18:55:00
2:15 PM,61.2,43.5,52,30.37,10.0,SE,3.5,-,N/A,,Clear,130,2012-12-01 19:15:00
2:35 PM,61.7,43.7,52,30.37,10.0,SE,3.5,-,N/A,,Clear,130,2012-12-01 19:35:00
2:55 PM,61.2,43.5,52,30.36,10.0,South,3.5,-,N/A,,Clear,170,2012-12-01 19:55:00
3:15 PM,59.4,44.4,58,30.36,10.0,SSE,4.6,-,N/A,,Clear,150,2012-12-01 20:15:00
3:35 PM,60.3,43.0,53,30.36,10.0,SE,8.1,-,N/A,,Clear,130,2012-12-01 20:35:00
3:55 PM,58.8,41.2,52,30.36,10.0,ESE,6.9,-,N/A,,Clear,120,2012-12-01 20:55:00
4:15 PM,57.2,40.5,54,30.37,10.0,SE,4.6,-,N/A,,Clear,130,2012-12-01 21:15:00
4:35 PM,54.3,39.9,58,30.37,10.0,ESE,4.6,-,N/A,,Clear,110,2012-12-01 21:35:00
4:55 PM,50.2,38.8,65,30.37,10.0,ESE,4.6,-,N/A,,Clear,110,2012-12-01 21:55:00
5:15 PM,47.3,40.5,77,30.38,10.0,Calm,Calm,-,N/A,,Clear,0,2012-12-01 22:15:00
5:35 PM,48.2,40.5,75,30.38,10.0,Calm,Calm,-,N/A,,Clear,0,2012-12-01 22:35:00
5:55 PM,43.9,37.6,78,30.39,10.0,Calm,Calm,-,N/A,,Clear,0,2012-12-01 22:55:00
6:15 PM,43.5,38.7,83,30.39,10.0,Calm,Calm,-,N/A,,Clear,0,2012-12-01 23:15:00
6:35 PM,43.0,38.5,84,30.40,10.0,Calm,Calm,-,N/A,,Clear,0,2012-12-01 23:35:00
6:55 PM,39.9,37.0,89,30.40,10.0,Calm,Calm,-,N/A,,Clear,0,2012-12-01 23:55:00
7:15 PM,38.3,36.3,93,30.41,10.0,ENE,3.5,-,N/A,,Clear,70,2012-12-02 00:15:00
7:35 PM,38.5,35.6,89,30.41,10.0,NE,3.5,-,N/A,,Clear,50,2012-12-02 00:35:00
7:55 PM,37.0,35.1,93,30.41,10.0,Calm,Calm,-,N/A,,Clear,0,2012-12-02 00:55:00
8:15 PM,37.0,34.9,92,30.42,10.0,Calm,Calm,-,N/A,,Clear,0,2012-12-02 01:15:00
8:35 PM,36.9,35.8,96,30.42,10.0,Calm,Calm,-,N/A,,Clear,0,2012-12-02 01:35:00
8:55 PM,38.7,37.4,95,30.42,10.0,Calm,Calm,-,N/A,,Clear,0,2012-12-02 01:55:00
9:15 PM,36.9,35.6,95,30.42,10.0,Calm,Calm,-,N/A,,Clear,0,2012-12-02 02:15:00
9:35 PM,36.9,36.3,98,30.42,10.0,Calm,Calm,-,N/A,,Clear,0,2012-12-02 02:35:00
9:55 PM,34.2,33.1,96,30.42,10.0,Calm,Calm,-,N/A,,Clear,0,2012-12-02 02:55:00
10:15 PM,33.4,32.9,98,30.42,10.0,Calm,Calm,-,N/A,,Clear,0,2012-12-02 03:15:00
10:35 PM,34.2,34.0,99,30.42,5.0,Calm,Calm,-,N/A,,Clear,0,2012-12-02 03:35:00
10:55 PM,33.6,33.1,98,30.42,10.0,Calm,Calm,-,N/A,,Clear,0,2012-12-02 03:55:00
11:15 PM,36.0,35.6,99,30.42,7.0,Calm,Calm,-,N/A,,Clear,0,2012-12-02 04:15:00
11:35 PM,33.6,33.1,98,30.42,10.0,Calm,Calm,-,N/A,,Clear,0,2012-12-02 04:35:00
11:55 PM,33.3,32.9,99,30.42,10.0,Calm,Calm,-,N/A,,Clear,0,2012-12-02 04:55:00